[[{"header":{"parameterUnit":"m.s-1","parameterCategory":1,"la1":30.2992,"la2":30.254,"lo1":-89.0895,"lo2":-89.0443,"dy":0.0025,"dx":0.0025,"nx":19,"ny":19,"refTime":"2026-05-15T03:00:00:Z","depth":0,"parameterNumber":2,"parameterNumberName":"U-component_of_WINDS"},"data":[0,0,0,0.8565,0.8568,0.8716,0.8716,0.8894,0.8895,0,0,0,0,0,0,0,0,0,0,0,0.851,0.8511,0.8565,0.8568,0.8715,0.8716,0.8893,0.8895,0,0,0,0,0,0,0,0,0,0,0,0.851,0.8511,0.8512,0.8568,0.8715,0.8716,0.8893,0.8786,0,0,0,0,0,0,0,0,0,0,0.8645,0.8584,0.8511,0.8512,0.8569,0.8715,0.8716,0.8782,0.8793,0.8821,0,0.8839,0,0.887,0.8906,0.8906,0,0,0,0.8577,0.8574,0.8623,0.8512,0.857,0.8715,0.8651,0.8788,0.8801,0.8836,0.8842,0.8849,0.8872,0.8907,0.8908,0.9031,0.9031,0,0,0.8569,0.8532,0.8614,0.8631,0.8604,0.8647,0.8656,0.8796,0.8802,0.8842,0.8853,0.8875,0.8908,0.8909,0.9031,0.9031,0,0,0,0.8539,0.8526,0.8572,0.8623,0.8651,0.8651,0.8661,0.8795,0.8813,0.8855,0.8877,0.8909,0.8911,0.9031,0.9031,0.9003,0,0,0,0.8535,0.8509,0.8568,0.8547,0.8648,0.8724,0.8657,0.8804,0.8821,0.8877,0.8909,0.8912,0.903,0.9031,0.9003,0.8996,0,0,0,0.8505,0.8505,0.8523,0.8545,0.8607,0.8723,0.8749,0.8808,0.8834,0.8906,0.8913,0.903,0.9031,0.9004,0.8997,0.9018,0,0,0,0.8462,0.8496,0.8522,0.8568,0.8605,0.8703,0.8748,0.8824,0.8883,0.891,0.9031,0.9031,0.9004,0.8997,0.9018,0.903,0.9031,0,0,0.8484,0.8497,0.8528,0.8555,0.8639,0.8684,0.8765,0.8855,0.8897,0.8985,0.8988,0.9003,0.8997,0.9018,0.9049,0.9049,0,0,0,0.8522,0.8544,0.8574,0.8627,0.8696,0.8755,0.8836,0.8871,0.8947,0.8933,0.9018,0.9015,0.903,0.9037,0.9037,0.9053,0.9032,0.9032,0.9032,0.85,0.8551,0.8606,0.8675,0.8727,0.8812,0.886,0.8921,0.8957,0.8977,0.9003,0.9015,0.9022,0.9022,0.9038,0.9013,0.9013,0.9013,0.9013,0.8538,0.8577,0.8626,0.8696,0.8752,0.8813,0.8898,0.8922,0.8989,0.8999,0.9014,0.902,0.9021,0.9038,0.9011,0.9011,0.9012,0.9012,0.9012,0.8529,0.8556,0.8596,0.8681,0.8741,0.8812,0.8875,0.8924,0.897,0.8985,0.902,0.902,0.9028,0.8998,0.8998,0.8998,0.8998,0.8998,0.8998,0.8503,0.855,0.8595,0.8672,0.8714,0.8777,0.8864,0.8909,0.897,0.9001,0.9002,0.9038,0.9011,0.9004,0.8999,0.8999,0.8999,0.8999,0.8999,0.8522,0.8526,0.8595,0.8637,0.8735,0.8793,0.8855,0.8941,0.8986,0.9016,0.905,0.9022,0.9039,0.9039,0.9033,0.9037,0.9037,0.9037,0.9037,0.8514,0.8528,0.8611,0.8676,0.8746,0.881,0.8891,0.8962,0.9035,0.9067,0.9074,0.907,0.9068,0.9087,0.9086,0.9082,0.9098,0.9098,0.9098,0.8529,0.8552,0.861,0.868,0.876,0.8829,0.8908,0.8985,0.907,0.9101,0.9093,0.9091,0.9086,0.9081,0.9111,0.9108,0.9101,0,0]},{"header":{"parameterUnit":"m.s-1","parameterCategory":1,"la1":30.2992,"la2":30.254,"lo1":-89.0895,"lo2":-89.0443,"dy":0.0025,"dx":0.0025,"nx":19,"ny":19,"refTime":"2026-05-15T03:00:00:Z","depth":0,"parameterNumber":3,"parameterNumberName":"V-component_of_WINDS"},"data":[0,0,0,-1.0136,-1.0133,-1.0059,-1.0059,-0.9925,-0.9923,0,0,0,0,0,0,0,0,0,0,0,-1.0135,-1.0134,-1.0136,-1.0133,-1.0059,-1.0059,-0.9925,-0.9923,0,0,0,0,0,0,0,0,0,0,0,-1.0136,-1.0134,-1.0132,-1.0133,-1.0059,-1.0059,-0.9926,-0.9995,0,0,0,0,0,0,0,0,0,0,-1.0074,-1.0052,-1.0135,-1.0132,-1.0132,-1.0059,-1.0059,-0.9999,-0.9991,-0.9943,0,-0.9895,0,-0.9907,-0.9912,-0.9912,0,0,0,-1.0149,-1.0059,-1.006,-1.0132,-1.0131,-1.0059,-1.0097,-0.9995,-0.9985,-0.9931,-0.9894,-0.989,-0.9905,-0.9911,-0.991,-0.9584,-0.9582,0,0,-1.0153,-1.0109,-1.0066,-1.0052,-1.0063,-1.0099,-1.0094,-0.999,-0.9945,-0.9893,-0.9887,-0.9903,-0.991,-0.9909,-0.9587,-0.9584,0,0,0,-1.0154,-1.0111,-1.0116,-1.0057,-1.0046,-1.0097,-1.0091,-0.9949,-0.9955,-0.9886,-0.9901,-0.9909,-0.9907,-0.9589,-0.9586,-0.943,0,0,0,-1.0158,-1.0112,-1.0116,-1.0088,-1.0048,-0.9997,-1.0052,-0.9962,-0.9952,-0.9902,-0.9909,-0.9905,-0.9592,-0.9587,-0.944,-0.9363,0,0,0,-1.0148,-1.0111,-1.0093,-1.0086,-1.0053,-1.0,-1.0,-0.9961,-0.996,-0.9911,-0.9905,-0.9594,-0.9588,-0.9449,-0.9377,-0.9263,0,0,0,-1.0124,-0.9954,-1.009,-0.9908,-1.0053,-0.9906,-1.0001,-0.9893,-0.9833,-0.9908,-0.9591,-0.9586,-0.9452,-0.9386,-0.9272,-0.9158,-0.9107,0,0,-0.9885,-0.9924,-0.9821,-0.994,-0.9757,-0.9921,-0.9715,-0.9701,-0.9736,-0.9633,-0.9625,-0.9437,-0.9378,-0.9265,-0.8841,-0.88,0,0,0,-0.973,-0.9654,-0.9616,-0.9558,-0.9546,-0.9528,-0.9551,-0.9547,-0.9462,-0.9674,-0.9368,-0.9334,-0.927,-0.9217,-0.9182,-0.9129,-0.9561,-0.9561,-0.9562,-0.9325,-0.9383,-0.9215,-0.9263,-0.9207,-0.9234,-0.9193,-0.9191,-0.9263,-0.919,-0.9158,-0.8894,-0.8831,-0.8805,-0.8749,-0.9105,-0.9105,-0.9104,-0.9104,-0.8979,-0.8881,-0.8986,-0.886,-0.8921,-0.8815,-0.8837,-0.8892,-0.8802,-0.8922,-0.8868,-0.8992,-0.8758,-0.8712,-0.9092,-0.9094,-0.9096,-0.9097,-0.9098,-0.8717,-0.868,-0.8681,-0.8606,-0.8542,-0.8598,-0.8508,-0.8568,-0.8622,-0.8569,-0.8542,-0.8544,-0.8552,-0.8553,-0.8552,-0.8551,-0.855,-0.855,-0.8549,-0.8444,-0.845,-0.8368,-0.8344,-0.8317,-0.8288,-0.8318,-0.8291,-0.8278,-0.8328,-0.8328,-0.8405,-0.8727,-0.8804,-0.8535,-0.8538,-0.8539,-0.8541,-0.8542,-0.8065,-0.8162,-0.8034,-0.8007,-0.7985,-0.7918,-0.7998,-0.7941,-0.7928,-0.7882,-0.7974,-0.8203,-0.8245,-0.8273,-0.8337,-0.7964,-0.7964,-0.7964,-0.7964,-0.7841,-0.7872,-0.7756,-0.7709,-0.767,-0.7731,-0.7584,-0.7607,-0.7645,-0.764,-0.7705,-0.7797,-0.7823,-0.785,-0.7887,-0.7948,-0.7483,-0.7483,-0.7482,-0.7611,-0.7641,-0.7504,-0.7546,-0.7535,-0.7524,-0.7388,-0.7328,-0.7392,-0.7464,-0.7638,-0.7658,-0.7808,-0.7854,-0.7924,-0.798,-0.8093,0,0]}]]